#timestamp,LO_Frequency,Hit,StdDev 
1614582015.4,286046975.8,Y
1614582035.3,286046971.1,P
1614582055.1,286046965.0,N
1614582075.9,286046960.1,N
1614582095.7,286046960.9,N
1614582115.5,286046960.4,N
1614582135.4,286046961.6,N
1614582155.2,286046963.8,N
1614582175.0,286046961.7,N
1614582176.0,286046961.7,Y
1614582195.8,286046995.3,P
1614582215.6,286046998.7,N
1614582235.5,286046999.3,N
1614582255.3,286046996.5,N
1614582275.1,286046998.6,N
1614582295.9,286047000.8,N
1614582315.7,286047000.2,N
1614582335.6,286047001.3,N
1614582355.4,286047004.1,N
1614582375.2,286047002.3,N
1614582395.1,286047004.3,N
1614582396.0,286047004.3,N
1614582415.8,286047003.5,N
1614582435.6,286047004.3,N
1614582455.5,286047003.7,N
1614582475.3,286047004.3,N
1614582495.2,286047001.0,N
1614582515.9,286047002.1,N
1614582535.7,286047004.7,N
1614582555.6,286047002.6,N
1614582575.4,286047001.0,N
1614582595.2,286046993.3,N
1614582615.1,286046996.3,N
1614582616.0,286046996.3,N
1614582635.8,286046992.5,N
1614582655.7,286046990.7,N
1614582675.5,286046991.5,N
1614582695.3,286046988.5,N
1614582715.2,286046986.3,N
1614582735.0,286046993.8,N
1614582735.9,286046993.8,N
1614582755.8,286046991.8,N
1614582775.6,286046995.7,N
1614582795.4,286046994.3,N
1614582815.3,286046991.9,N
1614582835.1,286046992.4,N
1614582855.8,286046988.8,N
1614582875.7,286046987.4,N
1614582895.5,286046989.8,N
1614582915.3,286046988.9,N
1614582935.2,286046988.6,N
1614582955.0,286046988.5,N
1614582955.9,286046988.5,N
1614582975.8,286046990.7,N
1614582995.6,286046990.5,N
1614583015.4,286046988.6,N
1614583035.3,286046991.4,N
1614583055.1,286046989.5,N
1614583075.9,286046988.7,N
1614583095.7,286046987.1,Y
1614583115.5,286046994.1,P
1614583135.4,286046986.1,P
1614583155.2,286046994.7,N
1614583175.0,286046978.7,Y
1614583175.9,286046978.7,P
1614583195.8,286046982.8,N
1614583215.6,286046983.0,P
1614583235.5,286046982.4,Y
1614583255.3,286047000.8,P
1614583275.1,286046999.4,N
1614583295.9,286046997.9,N
1614583315.7,286046996.9,N
1614583335.5,286046997.7,N
1614583355.4,286046993.4,N
1614583375.2,286046993.8,N
1614583425.1,286046993.6,E
1614583435.9,286046998.0,N
1614583455.7,286046996.6,P
1614583475.6,286046992.3,P
1614583495.4,286046988.8,Y
1614583515.2,286046994.7,P
1614583535.1,286046990.8,P
1614583536.0,286046990.8,P
1614583555.8,286046983.7,Y
1614583575.7,286046987.9,P
1614583595.5,286046978.1,P
1614583615.3,286046968.3,P
1614583635.2,286046961.1,Y
1614583655.0,286046974.8,P
1614583655.9,286046974.8,P
1614583675.8,286046968.9,P
1614583695.6,286046958.7,Y
1614583715.4,286046978.5,P
1614583735.3,286046976.9,P
1614583755.1,286046966.2,P
1614583775.8,286046956.0,Y
1614583795.7,286046981.4,P
1614583815.5,286046978.8,P
1614583835.4,286046983.9,P
1614583855.2,286046992.3,N
1614583875.0,286046996.5,N
1614583875.9,286046996.5,N
1614583895.8,286047004.4,N
1614583915.6,286047005.3,N
1614583935.4,286047005.5,N
1614583955.3,286047007.3,N
1614583975.1,286047002.2,N
1614583995.9,286046999.4,N
1614584015.7,286046997.1,N
1614584035.5,286047000.9,N
1614584055.4,286047000.9,N
1614584075.2,286046993.5,N
1614584095.0,286046984.0,N
1614584095.9,286046984.0,N
1614584115.8,286046982.3,N
1614584135.6,286046982.0,N
1614584155.5,286046976.3,N
1614584175.3,286046979.4,N
1614584195.1,286046976.1,N
1614584215.9,286046969.2,N
1614584235.7,286046960.5,Y
1614584255.6,286046978.6,P
1614584275.4,286046975.7,P
1614584295.2,286046977.6,P
1614584315.1,286046980.8,Y
1614584316.0,286046980.8,P
1614584335.8,286047002.6,P
1614584355.7,286047000.9,N
1614584375.5,286046997.3,N
1614584395.3,286046995.1,N
1614584415.2,286046995.8,N
1614584435.0,286046990.4,N
1614584435.9,286046990.4,N
1614584455.8,286046992.7,N
1614584475.6,286046988.5,N
1614584495.4,286046988.7,N
1614584515.3,286046992.7,N
1614584535.1,286046994.4,N
1614584555.8,286046990.9,N
1614584575.7,286046992.0,N
1614584595.5,286046987.0,N
1614584615.4,286046986.7,N
1614584635.2,286046987.0,N
1614584655.0,286046989.7,N
1614584655.9,286046989.7,N
1614584675.8,286046989.5,N
1614584695.6,286046989.9,N
1614584715.4,286046981.1,Y
1614584735.3,286046989.8,P
1614584755.1,286046995.8,P
1614584775.9,286046993.8,N
1614584795.7,286046985.4,Y
1614584815.5,286046988.7,P
1614584835.4,286046991.2,P
1614584855.2,286046991.4,P
1614584875.1,286046991.1,Y
1614584876.0,286046991.1,P
1614584895.8,286046994.4,P
1614584915.6,286046989.5,P
1614584935.5,286046991.3,Y
1614584955.3,286047000.6,P
1614584975.1,286047000.3,N
1614584995.9,286046998.4,N
1614585015.7,286047000.6,N
1614585035.6,286047001.2,N
1614585055.4,286047000.1,N
1614585075.2,286047003.1,N
1614585095.1,286047004.4,N
1614585096.0,286047004.4,N
1614585115.8,286046995.5,N
1614585135.7,286046982.6,Y
1614585155.5,286046978.9,P
1614585175.3,286046973.2,N
1614585195.2,286046970.2,N
1614585215.0,286046966.7,N
1614585215.9,286046966.7,N
1614585235.8,286046964.6,Y
1614585255.6,286046979.4,P
1614585275.4,286046973.8,P
1614585295.3,286046971.9,P
1614585315.1,286046970.8,Y
1614585335.9,286047000.4,P
1614585355.7,286047000.2,N
1614585375.5,286046995.5,N
1614585395.4,286046996.7,N
1614585415.2,286046996.3,N
1614585435.1,286046985.3,N
1614585436.0,286046985.3,N
1614585455.8,286046982.3,N
1614585475.6,286046981.4,N
1614585495.5,286046980.1,N
1614585515.3,286046983.0,N
1614585535.2,286046987.6,N
1614585555.9,286046983.7,N
1614585575.7,286046978.4,N
1614585595.6,286046970.5,Y
